Weather Roundup
Issued by NWS Chicago, IL

Home | Current Version | Previous Version | Text Only | Print | Product List | Glossary Off
Versions: 1 2 3 4 5 6 7 8 9 10 11 12 13 14 15 16 17 18 19 20 21 22 23 24 25 26 27 28 29 30 31 32 33 34 35 36 37 38 39 40 41 42 43 44 45 46 47 48 49 50

000
NZUS59 KLOT 110308
HRRLOT

CHICAGO AREA WEATHER ROUNDUP
NATIONAL WEATHER SERVICE CHICAGO/ROMEOVILLE IL
900 PM CST SUN DEC 10 2017

NOTE: "FAIR" INDICATES FEW OR NO CLOUDS BELOW 12,000 FEET WITH NO
SIGNIFICANT WEATHER AND/OR OBSTRUCTIONS TO VISIBILITY.

* THESE STATIONS ARE NOT UNDER NWS QUALITY CONTROL. THEY ALSO MAY NOT
  REPORT WEATHER SUCH AS PRECIPITATION OR FOG.

ILZ005-006-012>014-019>023-110400-
NORTHEAST ILLINOIS

CITY           SKY/WX    TMP DP  RH WIND       PRES   REMARKS
OHARE          CLOUDY    30  19  63 N7        30.07R WCI  23
MIDWAY         CLOUDY    31  20  63 N9        30.08R WCI  23
AURORA         CLEAR     23  18  81 CALM      30.08S
LANSING*       CLOUDY    29  22  73 N5        30.08S WCI  24
WAUKEGAN       CLOUDY    28  19  69 NW6       30.07R WCI  22
DUPAGE AIRPORT CLOUDY    27  20  75 NW5       30.07R WCI  22
WHEELING       CLOUDY    29  20  69 N7        30.09S WCI  22
KANKAKEE*      PTCLDY    26  19  74 W3        30.09S
MORRIS*        CLEAR     24  19  80 N3        30.08S
LEWIS AIRPORT* CLOUDY    27  20  76 NW5       30.08R WCI  21
NORTHERLY ISL    N/A     29  19  66 N6          N/A  WCI  23
$$

WIZ051-052-058>065-066-070>072-110400-
SOUTHEAST WISCONSIN

CITY           SKY/WX    TMP DP  RH WIND       PRES   REMARKS
MILWAUKEE      CLOUDY    28  18  66 NW8       30.06S WCI  20
KENOSHA*       CLOUDY    28  18  66 NW7       30.07R WCI  21
RACINE*        CLOUDY    28  17  63 NW9       30.09R WCI  19
BURLINGTON     CLOUDY    34  30  83 NW8       30.07S WCI  28
WAUKESHA       CLOUDY    25  18  74 W6        30.07S WCI  18
WEST BEND      CLOUDY    27  19  74 NW3       30.05R
$$

INZ001>003-010>013-019-020-110400-
NORTHWEST INDIANA

CITY           SKY/WX    TMP DP  RH WIND       PRES   REMARKS
GARY*          NOT AVBL
MICHIGAN CITY* NOT AVBL
RENSSELAER*    NOT AVBL
VALPARAISO     CLOUDY    32  22  66 NW8       30.06R WCI  25
$$

LMZ740>746-110400-
SOUTHERN LAKE MICHIGAN

STATION/POSITION TIME  SKY/WX   TEMP WIND        PRES    VSBY
                                AIR  DIR/SP/G
                 (UTC)          (F)  (DEG/KT/KT) (MB)    (MI)
HARRISON CRIB    0240            30  320/ 20/ 22   N/A
BURNHAM HARBOR   0300            29  340/ 10/ 16   N/A
CALUMET HARBOR   0248            29  310/ 10/ 16 1018.0R
BURNS HARBOR     0230            32  320/ 12/ 21 1018.6R
MICHIGAN CITY    0240            31  300/ 18/ 20   N/A
$$

ABBREVIATIONS USED IN REMARKS
   TC - TEMPERATURE IN CELSIUS
  WCI - WIND CHILL INDEX
   HX - HEAT INDEX
  VSB - VISIBILITY
$$



USA.gov is the U.S. government's official web portal to all federal, state and local government web resources and services.